Regional Weather Roundup
Issued by NWS Cleveland, OH

Home | Current Version | Previous Version | Text Only | Print | Product List | Glossary Off
Versions: 1 2 3 4 5 6 7 8 9 10 11 12 13 14 15 16 17 18 19 20 21 22 23 24 25 26 27 28 29 30 31 32 33 34 35 36 37 38 39 40 41 42 43 44 45 46 47 48 49 50

000
ASUS41 KCLE 250110
RWRCLE
OHIO REGIONAL WEATHER ROUNDUP
NATIONAL WEATHER SERVICE WILMINGTON, OH
900 PM EDT FRI MAR 24 2017

NOTE: "FAIR" INDICATES FEW OR NO CLOUDS BELOW 12,000 FEET WITH NO
SIGNIFICANT WEATHER AND/OR OBSTRUCTIONS TO VISIBILITY.

OHZ001>008-015>018-024>027-034-035-043-044-250200-
   NORTHWEST OHIO

CITY           SKY/WX    TMP DP  RH WIND       PRES   REMARKS
DEFIANCE       FAIR      66  52  60 SW13      30.03R
FINDLAY        FAIR      68  52  56 SW13      30.05R
TOLEDO EXPRESS FAIR      69  54  58 SW16      30.01R
TOLEDO EXEC    FAIR      66  55  67 SW8       30.02R
LIMA           MOCLDY    67  53  61 SW10      30.07R
$$

OHZ009>014-019>023-028>033-038-089-250200-
   NORTHEAST OHIO

CITY           SKY/WX    TMP DP  RH WIND       PRES   REMARKS
CLE-HOPKINS    MOCLDY    70  51  51 SW14      30.06R
CLE-LAKEFRONT  FAIR      71  52  50 S18G26    30.02R
CUY CO. ARPT   PTCLDY    70  54  56 W17G29    30.04R
LORAIN-ELYRIA  FAIR      65  51  60 SW14      30.05R
ASHTABULA      MOCLDY    65  50  58 SW8       30.04R
AKRON-CANTON   FAIR      67  51  56 SW14      30.09R
WOOSTER        FAIR      65  52  62 SW13      30.10R
MANSFIELD      FAIR      65  52  62 SW20G28   30.10R
YOUNGSTOWN     MOCLDY    66  51  58 SW14      30.08R
$$

OHZ042-051>053-060>062-070>072-077>081-250200-
  SOUTHWEST OHIO

CITY           SKY/WX    TMP DP  RH WIND       PRES   REMARKS
CINC-COVINGTON CLOUDY    68  52  56 S12G20    30.11S
CINC-LUNKEN    FAIR      69  53  56 SW12      30.12R
HAMILTON       FAIR      70  54  56 S9        30.11R
DAYTON         FAIR      67  52  58 SW15      30.10R
WRIGHT-PAT AFB MOCLDY    67  52  58 S14       30.09R
DAYTON GENERAL FAIR      69  52  54 SW13      30.10R
WILMINGTON     FAIR      63  53  70 S8        30.11S
$$

OHZ036-037-039>041-045>050-054>059-063>069-073>076-082>088-250200-
  CENTRAL AND SOUTHEAST OHIO

CITY           SKY/WX    TMP DP  RH WIND       PRES   REMARKS
COLUMBUS       MOCLDY    68  53  58 S9        30.11R
OSU AIRPORT    FAIR      67  54  63 S8        30.10R
BOLTON FIELD   FAIR      64  54  69 S7        30.11S
RICKENBACK AFB FAIR      65  53  65 S8        30.11R
NEWARK         FAIR      67  52  58 SW7       30.11R
MARION         FAIR      63  51  65 S9        30.09R
LANCASTER      FAIR      68  53  58 S5        30.13R
ZANESVILLE     FAIR      68  51  54 S8        30.12S
NEW PHILLY     FAIR      69  52  54 SW7       30.10R
$$




USA.gov is the U.S. government's official web portal to all federal, state and local government web resources and services.